Volver al catálogo

STARLINK-33893

ActivoComunicacionesVLEO
NORAD 64253·PAYLOAD·🇺🇸 United States

Lanzado Jun 3, 2025 desde Cape Canaveral Space Force Station

Loading…

Próximos Pases (próximas 24 horas)

TLE

ActualizadoSource: CelesTrak SupGP

Época: Sep 15, 2026, 02:54 UTC

1 64253C 25119W   26258.12131944  .00034988  00000+0  12670-2 0  2583
2 64253  43.0032 317.4374 0001636 263.2554 258.1430 15.27567731    14

Sigue STARLINK-33893 en tiempo real con AllMySat

Download on the App Store